DW9080 Weather Reports


time (UTC)temp
C
wind
direction
speed
KPH
gust
KPH
rain 1hr
cm
rain 24hr
cm
rain mn
cm
humidity
%
barometer
mb
20260505112529 -17 0.0 0.0 0.00 0.00 0.00 1003.7
20260505112010 -17 0.0 0.0 0.00 0.00 0.00 1003.8
20260505111515 -17 0.0 0.0 0.00 0.00 0.00 1003.8
20260505111008 -17 0.0 0.0 0.00 0.00 0.00 1003.9
20260505110505 -17 0.0 0.0 0.00 0.00 0.00 1003.9
20260505102038 19 225 9.7 19.3 0.00 0.00 0.00 44 1003.9
20260505101520 19 252 8.0 14.5 0.00 0.00 0.00 44 1003.9
20260505101020 20 233 8.0 16.1 0.00 0.00 0.00 44 1003.8
20260505100519 20 226 9.7 16.1 0.00 0.00 0.00 45 1003.8
20260505100026 20 253 0.0 19.3 0.00 0.00 0.00 45 1003.8
20260505095519 20 252 8.0 20.9 0.00 0.00 0.00 45 1003.7
20260505095019 20 226 12.9 22.5 0.00 0.00 0.00 46 1003.8
20260505094501 20 250 11.3 20.9 0.00 0.00 0.00 46 1003.8
20260505094101 20 243 6.4 17.7 0.00 0.00 0.00 45 1003.8
20260505093605 20 219 0.0 17.7 0.00 0.00 0.00 45 1003.9
20260505093002 20 259 9.7 19.3 0.00 0.00 0.00 45 1003.8
20260505092604 20 219 6.4 17.7 0.00 0.00 0.00 46 1003.8
20260505092059 20 224 0.0 1.6 0.00 0.00 0.00 46 1003.8
20260505091547 20 240 0.0 1.6 0.00 0.00 0.00 45 1003.8
20260505091043 20 246 0.0 16.1 0.00 0.00 0.00 45 1003.8
20260505090542 20 226 9.7 17.7 0.00 0.00 0.00 44 1003.7
20260505090051 20 207 9.7 20.9 0.00 0.00 0.00 44 1003.7
20260505085542 20 233 12.9 17.7 0.00 0.00 0.00 44 1003.7
20260505085042 20 240 9.7 24.1 0.00 0.00 0.00 44 1003.7
20260505084525 21 177 9.7 24.1 0.00 0.00 0.00 43 1003.7
20260505084023 21 257 9.7 20.9 0.00 0.00 0.00 43 1003.7
20260505083523 21 224 11.3 22.5 0.00 0.00 0.00 43 1003.7
20260505083026 21 250 11.3 22.5 0.00 0.00 0.00 43 1003.7
20260505082527 21 221 6.4 24.1 0.00 0.00 0.00 42 1003.7
20260505082023 21 248 16.1 24.1 0.00 0.00 0.00 42 1003.8
20260505081506 21 231 12.9 22.5 0.00 0.00 0.00 42 1003.9
20260505081006 21 233 12.9 19.3 0.00 0.00 0.00 42 1003.8
20260505080505 21 238 8.0 19.3 0.00 0.00 0.00 42 1004.0
20260505080005 21 191 8.0 24.1 0.00 0.00 0.00 41 1003.9
20260505075506 21 204 8.0 25.7 0.00 0.00 0.00 41 1004.0
20260505075005 21 256 8.0 25.7 0.00 0.00 0.00 40 1004.1
20260505074546 22 246 12.9 25.7 0.00 0.00 0.00 40 1004.0
20260505074049 22 243 14.5 24.1 0.00 0.00 0.00 40 1004.2
20260505073548 22 209 9.7 24.1 0.00 0.00 0.00 39 1004.3
20260505073056 22 219 12.9 24.1 0.00 0.00 0.00 39 1004.2
20260505072546 22 233 8.0 24.1 0.00 0.00 0.00 39 1004.2
20260505072045 22 256 12.9 20.9 0.00 0.00 0.00 38 1004.3
20260505071529 22 232 11.3 20.9 0.00 0.00 0.00 38 1004.4
20260505071029 22 225 14.5 22.5 0.00 0.00 0.00 38 1004.5
20260505070530 22 238 11.3 22.5 0.00 0.00 0.00 38 1004.6
20260505070028 22 232 8.0 24.1 0.00 0.00 0.00 37 1004.6
20260505065527 22 240 11.3 24.1 0.00 0.00 0.00 37 1004.7
20260505065027 22 228 12.9 24.1 0.00 0.00 0.00 36 1004.7
20260505064509 22 218 12.9 27.4 0.00 0.00 0.00 36 1004.7
20260505064012 22 222 12.9 27.4 0.00 0.00 0.00 36 1004.8
20260505063515 22 219 12.9 27.4 0.00 0.00 0.00 35 1004.8
20260505063009 22 243 14.5 30.6 0.00 0.00 0.00 35 1004.8
20260505062508 23 236 11.3 30.6 0.00 0.00 0.00 35 1004.9
20260505062009 23 236 12.9 27.4 0.00 0.00 0.00 34 1005.1
20260505061550 23 248 14.5 27.4 0.00 0.00 0.00 34 1005.0
20260505061050 23 208 12.9 24.1 0.00 0.00 0.00 34 1005.0
20260505060550 23 224 12.9 22.5 0.00 0.00 0.00 33 1005.0
20260505060050 23 232 9.7 19.3 0.00 0.00 0.00 33 1005.1
20260505055550 23 265 8.0 25.7 0.00 0.00 0.00 32 1005.3
20260505055053 23 246 11.3 25.7 0.00 0.00 0.00 31 1005.2
20260505054533 23 227 11.3 20.9 0.00 0.00 0.00 30 1005.3
20260505054032 23 201 9.7 19.3 0.00 0.00 0.00 29 1005.3
20260505053531 23 243 11.3 17.7 0.00 0.00 0.00 28 1005.4
20260505053032 23 243 8.0 16.1 0.00 0.00 0.00 26 1005.4
20260505052535 24 225 8.0 17.7 0.00 0.00 0.00 26 1005.4
20260505052031 24 236 8.0 17.7 0.00 0.00 0.00 26 1005.5
20260505051520 24 225 0.0 1.6 0.00 0.00 0.00 26 1005.5
20260505051013 24 212 0.0 1.6 0.00 0.00 0.00 26 1005.6
20260505050516 24 232 0.0 1.6 0.00 0.00 0.00 26 1005.6
20260505041549 25 225 0.0 1.6 0.00 0.00 0.00 23 1005.0
20260505041036 25 225 0.0 1.6 0.00 0.00 0.00 23 1005.0
20260505040539 25 226 0.0 1.6 0.00 0.00 0.00 22 1004.9
20260505040043 25 219 0.0 1.6 0.00 0.00 0.00 22 1004.9
20260505035535 25 226 0.0 1.6 0.00 0.00 0.00 22 1004.8
20260505035035 25 243 0.0 1.6 0.00 0.00 0.00 23 1004.8
20260505034517 25 243 0.0 1.6 0.00 0.00 0.00 23 1004.7
20260505034020 25 221 0.0 1.6 0.00 0.00 0.00 23 1004.7
20260505033516 25 249 0.0 1.6 0.00 0.00 0.00 23 1004.7
20260505033017 25 240 0.0 1.6 0.00 0.00 0.00 23 1004.6
20260505032519 25 218 0.0 1.6 0.00 0.00 0.00 23 1004.6
20260505032016 25 233 0.0 1.6 0.00 0.00 0.00 23 1004.4
20260505031616 25 243 0.0 1.6 0.00 0.00 0.00 23 1004.3
20260505031058 26 203 0.0 1.6 0.00 0.00 0.00 23 1004.2
20260505030600 26 219 0.0 1.6 0.00 0.00 0.00 23 1004.2
20260505030058 26 256 0.0 1.6 0.00 0.00 0.00 23 1004.1
20260505025558 26 243 0.0 1.6 0.00 0.00 0.00 23 1004.1
20260505025058 26 235 0.0 1.6 0.00 0.00 0.00 23 1004.0
20260505024557 26 236 0.0 8.0 0.00 0.00 0.00 23 1003.9
20260505024039 26 166 0.0 11.3 0.00 0.00 0.00 24 1003.8
20260505023543 26 219 6.4 9.7 0.00 0.00 0.00 24 1003.7
20260505023044 26 240 0.0 1.6 0.00 0.00 0.00 26 1003.6
20260505022539 26 250 0.0 1.6 0.00 0.00 0.00 26 1003.5
20260505022038 26 210 0.0 1.6 0.00 0.00 0.00 27 1003.5
20260505021541 26 219 0.0 1.6 0.00 0.00 0.00 27 1003.4
20260505021019 26 246 0.0 1.6 0.00 0.00 0.00 28 1003.3
20260505020519 26 219 0.0 1.6 0.00 0.00 0.00 28 1003.3
20260505020020 26 222 0.0 1.6 0.00 0.00 0.00 28 1003.3
20260505015519 26 232 0.0 1.6 0.00 0.00 0.00 28 1003.2
20260505015019 26 204 0.0 1.6 0.00 0.00 0.00 28 1003.1
20260505014519 26 226 0.0 1.6 0.00 0.00 0.00 29 1003.0
20260505014001 26 197 0.0 1.6 0.00 0.00 0.00 29 1003.0
20260505013600 27 166 0.0 1.6 0.00 0.00 0.00 28 1002.9
20260505013100 27 181 0.0 1.6 0.00 0.00 0.00 27 1003.0
20260505012600 27 221 0.0 1.6 0.00 0.00 0.00 26 1002.9
20260505012100 27 211 0.0 1.6 0.00 0.00 0.00 26 1002.8
20260505011607 27 240 0.0 1.6 0.00 0.00 0.00 26 1002.8
20260505011043 27 246 0.0 1.6 0.00 0.00 0.00 26 1002.8
20260505010541 27 246 0.0 1.6 0.00 0.00 0.00 26 1002.8
20260505010042 27 256 0.0 1.6 0.00 0.00 0.00 25 1002.7
20260505005541 28 266 0.0 1.6 0.00 0.00 0.00 26 1002.7
20260505005041 28 269 0.0 0.0 0.00 0.00 0.00 26 1002.7
20260505004545 28 246 0.0 1.6 0.00 0.00 0.00 26 1002.7
20260505004024 28 253 0.0 1.6 0.00 0.00 0.00 26 1002.7
20260505003522 28 245 0.0 1.6 0.00 0.00 0.00 25 1002.6
20260505003022 29 266 0.0 1.6 0.00 0.00 0.00 25 1002.6
20260505002524 29 226 0.0 1.6 0.00 0.00 0.00 25 1002.5
20260505002023 29 249 0.0 1.6 0.00 0.00 0.00 26 1002.6
20260505001523 29 277 0.0 1.6 0.00 0.00 0.00 25 1002.5
20260505001004 29 246 0.0 1.6 0.00 0.00 0.00 24 1002.5
20260505000504 29 243 0.0 1.6 0.00 0.00 0.00 26 1002.5
20260505000004 29 219 0.0 1.6 0.00 0.00 0.00 25 1002.5
20260504235503 30 233 0.0 1.6 0.00 0.00 0.00 26 1002.6
20260504235002 30 262 0.0 1.6 0.00 0.00 0.00 27 1002.6
20260504234502 30 222 0.0 1.6 0.00 0.00 0.00 26 1002.6
20260504234046 30 211 0.0 1.6 0.00 0.00 0.00 26 1002.6
20260504233549 30 243 0.0 1.6 0.00 0.00 0.00 26 1002.6
20260504233050 30 275 0.0 1.6 0.00 0.00 0.00 27 1002.6
20260504232544 30 252 0.0 1.6 0.00 0.00 0.00 26 1002.7
20260504232045 30 250 0.0 1.6 0.00 0.00 0.00 26 1002.8
20260504231543 30 239 0.0 1.6 0.00 0.00 0.00 25 1002.7
20260504231026 30 287 0.0 1.6 0.00 0.00 0.00 25 1002.8
20260504230525 30 243 0.0 1.6 0.00 0.00 0.00 25 1002.8
20260504230026 30 301 0.0 1.6 0.00 0.00 0.00 24 1002.9
20260504225527 30 256 0.0 1.6 0.00 0.00 0.00 25 1002.8
20260504225024 30 227 0.0 1.6 0.00 0.00 0.00 25 1002.9
20260504224523 30 243 0.0 1.6 0.00 0.00 0.00 26 1002.9
20260504224006 30 250 0.0 1.6 0.00 0.00 0.00 27 1003.1
20260504223505 30 239 0.0 1.6 0.00 0.00 0.00 25 1003.2
20260504223005 30 230 0.0 1.6 0.00 0.00 0.00 25 1003.1
20260504222504 30 238 0.0 1.6 0.00 0.00 0.00 24 1003.1
20260504222007 30 253 0.0 1.6 0.00 0.00 0.00 25 1003.2
20260504221504 30 222 0.0 1.6 0.00 0.00 0.00 24 1003.3
20260504221045 30 248 0.0 1.6 0.00 0.00 0.00 25 1003.3
20260504220545 30 242 0.0 1.6 0.00 0.00 0.00 24 1003.4
20260504220044 30 165 0.0 1.6 0.00 0.00 0.00 23 1003.5
20260504215543 30 236 0.0 1.6 0.00 0.00 0.00 24 1003.5
20260504215043 30 234 0.0 1.6 0.00 0.00 0.00 25 1003.6
20260504214541 30 243 0.0 3.2 0.00 0.00 0.00 25 1003.7
20260504214023 30 239 0.0 1.6 0.00 0.00 0.00 25 1003.7
20260504213522 30 250 0.0 1.6 0.00 0.00 0.00 24 1003.9
20260504213043 30 239 0.0 11.3 0.00 0.00 0.00 25 1003.8
20260504212522 30 297 0.0 11.3 0.00 0.00 0.00 25 1003.9
20260504212022 30 18 0.0 9.7 0.00 0.00 0.00 25 1003.9
20260504211520 30 222 0.0 3.2 0.00 0.00 0.00 26 1004.0
20260504211001 30 256 0.0 3.2 0.00 0.00 0.00 26 1004.1
20260504210502 30 251 0.0 1.6 0.00 0.00 0.00 26 1004.2
20260504210100 30 253 0.0 8.0 0.00 0.00 0.00 24 1004.3
20260504205601 30 105 0.0 17.7 0.00 0.00 0.00 24 1004.3
20260504205059 30 225 0.0 11.3 0.00 0.00 0.00 24 1004.5
20260504204558 30 222 0.0 4.8 0.00 0.00 0.00 25 1004.5
20260504204039 30 236 0.0 1.6 0.00 0.00 0.00 25 1004.6
20260504203538 30 12 0.0 1.6 0.00 0.00 0.00 24 1004.7
20260504203037 29 273 0.0 1.6 0.00 0.00 0.00 26 1004.8
20260504202537 30 270 0.0 16.1 0.00 0.00 0.00 24 1004.9
20260504202035 29 231 0.0 16.1 0.00 0.00 0.00 26 1005.0
20260504201536 30 236 3.2 14.5 0.00 0.00 0.00 27 1005.0
20260504201020 29 226 0.0 1.6 0.00 0.00 0.00 26 1005.1
20260504200516 28 249 0.0 3.2 0.00 0.00 0.00 24 1005.2
20260504200017 28 239 0.0 3.2 0.00 0.00 0.00 27 1005.3
20260504195514 28 246 0.0 16.1 0.00 0.00 0.00 28 1005.4
20260504195014 28 256 6.4 16.1 0.00 0.00 0.00 26 1005.6
20260504194517 28 214 0.0 11.3 0.00 0.00 0.00 27 1005.8
20260504194112 28 239 4.8 11.3 0.00 0.00 0.00 28 1005.7
20260504193553 28 260 0.0 1.6 0.00 0.00 0.00 26 1005.9
20260504193100 27 266 0.0 1.6 0.00 0.00 0.00 27 1005.8
20260504192552 27 231 0.0 17.7 0.00 0.00 0.00 27 1005.9
20260504192050 27 256 8.0 19.3 0.00 0.00 0.00 29 1006.1
20260504191549 27 239 0.0 3.2 0.00 0.00 0.00 29 1006.1
20260504191049 28 239 0.0 20.9 0.00 0.00 0.00 30 1006.3
20260504190533 27 232 1.6 20.9 0.00 0.00 0.00 30 1006.4
20260504190029 27 246 0.0 12.9 0.00 0.00 0.00 31 1006.5
20260504185530 28 194 0.0 19.3 0.00 0.00 0.00 32 1006.5
20260504185028 27 243 11.3 19.3 0.00 0.00 0.00 31 1006.6
20260504184528 27 263 0.0 19.3 0.00 0.00 0.00 31 1006.6
20260504184028 27 226 8.0 19.3 0.00 0.00 0.00 32 1006.8
20260504183511 27 256 8.0 19.3 0.00 0.00 0.00 33 1006.8
20260504183015 26 233 9.7 22.5 0.00 0.00 0.00 33 1006.9
20260504182510 27 226 0.0 6.4 0.00 0.00 0.00 34 1006.9
20260504182007 26 243 0.0 19.3 0.00 0.00 0.00 35 1006.9
20260504181507 26 236 9.7 20.9 0.00 0.00 0.00 36 1007.1
20260504181006 26 196 9.7 19.3 0.00 0.00 0.00 33 1007.1
20260504180505 26 225 0.0 20.9 0.00 0.00 0.00 39 1007.2
20260504180006 26 243 9.7 20.9 0.00 0.00 0.00 37 1007.3
20260504175501 26 226 0.0 17.7 0.00 0.00 0.00 37 1007.4
20260504175004 26 269 1.6 20.9 0.00 0.00 0.00 39 1007.4
20260504174617 26 248 9.7 22.5 0.00 0.00 0.00 39 1007.5
20260504174059 26 240 0.0 4.8 0.00 0.00 0.00 41 1007.6
20260504173600 25 211 0.0 14.5 0.00 0.00 0.00 41 1007.7
20260504173059 25 248 4.8 19.3 0.00 0.00 0.00 42 1007.7
20260504172555 25 203 4.8 16.1 0.00 0.00 0.00 44 1007.9
20260504172058 25 214 4.8 9.7 0.00 0.00 0.00 44 1008.0
20260504171554 25 214 0.0 17.7 0.00 0.00 0.00 44 1008.1
20260504171056 24 239 1.6 24.1 0.00 0.00 0.00 46 1008.1
20260504170554 24 260 9.7 24.1 0.00 0.00 0.00 44 1008.3
20260504151039 20 266 0.0 1.6 0.00 0.00 0.00 64 1009.3
20260504150521 20 249 0.0 1.6 0.00 0.00 0.00 66 1009.5
20260504141051 17 242 0.0 1.6 0.00 0.00 0.00 73 1009.3
20260504140532 17 265 0.0 0.0 0.00 0.00 0.00 76 1009.3
20260504130603 14 300 0.0 0.0 0.00 0.00 0.00 82 1008.7